Precipitable_Water
0.30 0.31 0.30 0.29 0.27 0.27 0.24 0.26 0.22 0.20 0.22 0.23 0.24 0.25 0.24 0.24 0.23 0.22 0.22 0.21 0.20 0.19 0.19 0.18 0.17 0.16 0.16 0.15 0.15 0.14 0.13 0.13 0.13 0.18 0.23 0.25 0.26 0.27 0.30 0.33 0.37 0.44 0.48 0.58
0.26 0.30 0.29 0.25 0.26 0.25 0.24 0.25 0.24 0.22 0.20 0.25 0.26 0.26 0.25 0.24 0.23 0.22 0.21 0.21 0.19 0.18 0.19 0.18 0.17 0.16 0.16 0.15 0.15 0.14 0.13 0.12 0.13 0.15 0.21 0.24 0.25 0.27 0.29 0.31 0.35 0.42 0.46 0.53
0.20 0.26 0.24 0.19 0.21 0.22 0.23 0.23 0.22 0.18 0.19 0.23 0.23 0.23 0.23 0.23 0.23 0.21 0.20 0.19 0.18 0.19 0.19 0.18 0.17 0.17 0.15 0.15 0.15 0.14 0.12 0.12 0.13 0.14 0.18 0.23 0.25 0.26 0.28 0.31 0.35 0.40 0.43 0.51
0.20 0.22 0.14 0.18 0.20 0.21 0.21 0.21 0.23 0.22 0.21 0.23 0.24 0.24 0.24 0.25 0.23 0.21 0.19 0.18 0.19 0.19 0.19 0.18 0.18 0.16 0.15 0.15 0.14 0.13 0.12 0.12 0.12 0.13 0.15 0.22 0.24 0.25 0.27 0.30 0.33 0.39 0.42 0.48
0.18 0.17 0.19 0.16 0.19 0.20 0.19 0.17 0.22 0.22 0.23 0.24 0.25 0.23 0.22 0.23 0.22 0.21 0.20 0.19 0.20 0.20 0.19 0.18 0.17 0.16 0.15 0.14 0.13 0.12 0.11 0.12 0.12 0.13 0.14 0.20 0.23 0.25 0.27 0.29 0.31 0.35 0.42 0.47
0.20 0.15 0.13 0.15 0.20 0.22 0.22 0.16 0.23 0.23 0.23 0.23 0.23 0.18 0.19 0.21 0.20 0.20 0.20 0.20 0.20 0.19 0.19 0.18 0.16 0.15 0.14 0.13 0.12 0.11 0.11 0.12 0.12 0.13 0.14 0.19 0.23 0.25 0.27 0.29 0.30 0.35 0.41 0.45
0.19 0.18 0.18 0.21 0.23 0.23 0.16 0.17 0.25 0.26 0.24 0.23 0.21 0.22 0.22 0.20 0.19 0.19 0.19 0.20 0.20 0.19 0.18 0.17 0.16 0.14 0.12 0.12 0.11 0.12 0.12 0.12 0.12 0.13 0.13 0.18 0.24 0.26 0.27 0.29 0.29 0.35 0.40 0.43
0.20 0.17 0.14 0.22 0.22 0.19 0.23 0.26 0.27 0.27 0.26 0.25 0.24 0.23 0.21 0.20 0.19 0.18 0.18 0.19 0.19 0.17 0.17 0.16 0.14 0.13 0.12 0.11 0.12 0.11 0.11 0.11 0.12 0.12 0.13 0.16 0.23 0.25 0.27 0.28 0.28 0.33 0.37 0.40
0.22 0.19 0.24 0.25 0.26 0.26 0.27 0.29 0.29 0.28 0.29 0.28 0.24 0.22 0.21 0.19 0.18 0.18 0.19 0.18 0.18 0.16 0.15 0.14 0.13 0.12 0.11 0.11 0.11 0.11 0.11 0.11 0.11 0.12 0.12 0.15 0.22 0.25 0.26 0.27 0.29 0.32 0.34 0.35
0.25 0.26 0.25 0.26 0.28 0.29 0.28 0.31 0.32 0.31 0.28 0.25 0.22 0.21 0.20 0.19 0.18 0.19 0.18 0.17 0.16 0.15 0.13 0.12 0.11 0.11 0.11 0.11 0.10 0.10 0.10 0.11 0.11 0.11 0.12 0.14 0.20 0.25 0.25 0.26 0.29 0.32 0.34 0.34
0.26 0.24 0.26 0.29 0.30 0.30 0.31 0.31 0.29 0.28 0.26 0.24 0.23 0.22 0.21 0.21 0.19 0.18 0.17 0.16 0.16 0.14 0.12 0.10 0.10 0.10 0.10 0.10 0.10 0.10 0.10 0.10 0.11 0.11 0.12 0.13 0.17 0.24 0.25 0.27 0.30 0.31 0.34 0.35
0.19 0.24 0.28 0.27 0.29 0.31 0.28 0.27 0.26 0.25 0.24 0.23 0.23 0.21 0.21 0.19 0.18 0.16 0.15 0.15 0.14 0.11 0.10 0.09 0.09 0.09 0.09 0.10 0.10 0.09 0.09 0.10 0.10 0.11 0.12 0.13 0.14 0.21 0.25 0.27 0.31 0.34 0.37 0.37
0.23 0.28 0.28 0.27 0.27 0.27 0.25 0.24 0.24 0.23 0.22 0.20 0.20 0.19 0.19 0.17 0.16 0.15 0.14 0.12 0.10 0.10 0.09 0.09 0.09 0.08 0.09 0.09 0.09 0.09 0.09 0.10 0.10 0.11 0.12 0.12 0.13 0.19 0.21 0.24 0.29 0.33 0.36 0.37
0.27 0.26 0.23 0.24 0.22 0.23 0.23 0.22 0.22 0.20 0.19 0.19 0.18 0.17 0.15 0.13 0.12 0.11 0.10 0.10 0.10 0.09 0.09 0.09 0.08 0.08 0.09 0.09 0.09 0.09 0.10 0.10 0.10 0.11 0.12 0.13 0.12 0.18 0.21 0.22 0.24 0.28 0.34 0.37
0.23 0.23 0.23 0.22 0.21 0.20 0.20 0.20 0.18 0.17 0.15 0.13 0.12 0.11 0.11 0.10 0.09 0.09 0.09 0.09 0.09 0.08 0.08 0.08 0.08 0.08 0.09 0.09 0.09 0.10 0.10 0.10 0.11 0.12 0.13 0.12 0.12 0.16 0.21 0.22 0.24 0.27 0.31 0.35
0.21 0.20 0.20 0.18 0.18 0.17 0.16 0.14 0.12 0.11 0.10 0.10 0.09 0.09 0.08 0.08 0.07 0.07 0.07 0.07 0.07 0.07 0.07 0.07 0.08 0.08 0.09 0.09 0.10 0.10 0.10 0.10 0.12 0.12 0.12 0.10 0.11 0.15 0.20 0.22 0.23 0.26 0.28 0.31
0.17 0.16 0.17 0.14 0.12 0.11 0.10 0.10 0.09 0.08 0.08 0.07 0.07 0.06 0.06 0.06 0.05 0.05 0.05 0.06 0.06 0.06 0.07 0.07 0.07 0.08 0.09 0.10 0.10 0.10 0.10 0.11 0.12 0.11 0.10 0.10 0.11 0.15 0.19 0.21 0.23 0.25 0.27 0.31
0.16 0.13 0.11 0.10 0.09 0.08 0.07 0.07 0.06 0.06 0.05 0.05 0.05 0.05 0.05 0.05 0.05 0.05 0.05 0.05 0.06 0.06 0.06 0.07 0.08 0.08 0.10 0.11 0.10 0.10 0.11 0.11 0.11 0.10 0.10 0.10 0.11 0.15 0.19 0.21 0.23 0.25 0.28 0.30
0.10 0.08 0.08 0.07 0.07 0.06 0.06 0.05 0.05 0.05 0.05 0.05 0.05 0.04 0.04 0.04 0.05 0.05 0.05 0.05 0.05 0.05 0.06 0.07 0.09 0.10 0.09 0.10 0.10 0.12 0.11 0.10 0.10 0.09 0.09 0.11 0.12 0.15 0.19 0.20 0.22 0.24 0.27 0.29
0.07 0.06 0.06 0.06 0.06 0.05 0.05 0.05 0.05 0.05 0.05 0.05 0.04 0.04 0.04 0.05 0.05 0.05 0.06 0.05 0.06 0.06 0.08 0.09 0.09 0.09 0.08 0.09 0.11 0.11 0.10 0.09 0.09 0.09 0.10 0.11 0.12 0.15 0.19 0.20 0.22 0.24 0.26 0.28
0.06 0.06 0.06 0.05 0.05 0.05 0.05 0.05 0.05 0.05 0.05 0.04 0.04 0.04 0.05 0.05 0.06 0.06 0.06 0.06 0.07 0.08 0.09 0.09 0.08 0.08 0.09 0.11 0.11 0.10 0.09 0.08 0.09 0.09 0.10 0.11 0.12 0.15 0.18 0.20 0.21 0.23 0.25 0.27
0.06 0.06 0.06 0.06 0.05 0.05 0.05 0.05 0.05 0.05 0.04 0.05 0.05 0.05 0.05 0.05 0.06 0.06 0.06 0.06 0.07 0.08 0.09 0.08 0.07 0.09 0.11 0.11 0.10 0.09 0.09 0.09 0.10 0.10 0.11 0.11 0.12 0.15 0.17 0.19 0.20 0.22 0.25 0.27
0.06 0.06 0.06 0.06 0.05 0.05 0.05 0.05 0.05 0.05 0.05 0.05 0.05 0.05 0.05 0.05 0.05 0.05 0.05 0.06 0.08 0.08 0.09 0.08 0.09 0.10 0.11 0.10 0.09 0.09 0.10 0.10 0.10 0.11 0.11 0.12 0.12 0.16 0.17 0.19 0.20 0.22 0.24 0.26
0.06 0.06 0.06 0.06 0.06 0.05 0.05 0.05 0.05 0.05 0.05 0.05 0.05 0.06 0.05 0.05 0.05 0.06 0.07 0.07 0.07 0.08 0.08 0.08 0.09 0.10 0.10 0.09 0.09 0.10 0.10 0.11 0.11 0.11 0.12 0.13 0.13 0.16 0.18 0.19 0.21 0.23 0.24 0.26
0.06 0.06 0.06 0.06 0.05 0.05 0.05 0.05 0.05 0.05 0.05 0.05 0.06 0.06 0.06 0.06 0.06 0.06 0.06 0.06 0.07 0.07 0.07 0.08 0.09 0.09 0.09 0.09 0.10 0.10 0.10 0.11 0.11 0.12 0.12 0.13 0.14 0.17 0.18 0.19 0.21 0.23 0.24 0.27
0.06 0.06 0.06 0.06 0.06 0.06 0.06 0.06 0.05 0.05 0.05 0.05 0.06 0.06 0.06 0.06 0.06 0.06 0.06 0.06 0.06 0.06 0.07 0.07 0.08 0.09 0.09 0.10 0.10 0.10 0.11 0.11 0.12 0.12 0.13 0.13 0.15 0.17 0.18 0.20 0.21 0.23 0.25 0.27
0.06 0.07 0.06 0.06 0.06 0.06 0.06 0.06 0.06 0.05 0.06 0.06 0.05 0.05 0.06 0.06 0.06 0.06 0.06 0.05 0.06 0.06 0.07 0.08 0.08 0.09 0.10 0.10 0.10 0.11 0.11 0.12 0.12 0.13 0.13 0.14 0.16 0.18 0.19 0.20 0.22 0.24 0.26 0.28
Wind_Speed
39 38 34 35 34 34 37 40 36 48 44 45 42 38 39 39 37 36 36 36 36 35 33 33 33 32 33 33 33 32 32 32 32 32 33 37 43 49 55 59 61 63 63 63
37 36 38 43 42 39 40 41 45 48 51 45 44 42 42 39 36 36 36 35 34 33 33 33 33 32 33 34 33 33 33 33 32 32 32 35 39 45 52 56 60 62 64 64
35 28 30 39 41 40 37 37 38 41 44 42 40 38 37 36 35 36 36 33 33 32 33 33 33 33 34 34 34 34 34 33 32 32 32 33 36 42 48 54 58 62 64 65
32 27 32 36 33 34 37 39 38 41 42 40 39 38 36 35 37 36 34 32 32 32 32 33 33 33 34 34 34 34 33 33 32 32 32 33 34 38 44 51 57 60 63 66
30 32 37 44 33 33 31 39 38 41 43 42 40 37 39 37 36 34 33 32 31 32 33 33 33 33 34 35 34 33 33 33 32 32 32 32 33 35 40 48 54 60 61 65
30 31 32 38 31 31 29 38 32 33 37 37 30 34 35 31 31 30 30 30 31 32 32 33 33 33 34 34 34 33 33 33 32 32 32 32 33 34 37 43 51 57 61 64
39 36 35 39 31 29 31 34 30 31 33 29 32 33 32 30 28 27 28 29 30 31 32 33 34 34 34 34 34 34 33 33 32 32 32 32 32 32 34 39 47 53 57 61
33 34 39 33 29 33 35 33 33 33 32 32 33 32 31 30 27 28 29 30 31 33 34 34 34 34 34 34 34 34 33 33 32 32 31 31 31 31 32 36 42 48 54 59
35 37 37 37 38 37 37 37 36 35 34 34 33 32 31 29 29 30 31 32 33 34 34 34 34 34 34 34 34 34 33 33 32 32 31 30 30 30 30 32 37 42 48 55
37 43 42 41 40 39 38 38 36 35 34 33 32 31 30 30 31 32 33 34 34 34 34 34 34 34 35 34 34 34 33 33 32 31 30 30 29 29 29 30 34 36 41 49
43 46 40 41 41 39 37 35 33 33 33 33 32 31 31 31 32 33 34 34 34 34 33 34 35 35 35 35 34 33 33 32 31 30 30 29 29 28 28 30 33 35 38 45
46 41 40 38 38 36 36 34 33 33 32 32 32 31 31 32 33 34 35 35 34 34 35 36 36 36 36 35 34 33 33 31 31 30 29 29 29 28 28 30 32 33 37 41
42 39 37 36 34 32 31 31 31 31 31 31 31 30 31 32 33 34 34 35 35 36 37 37 37 36 36 35 34 33 32 32 30 30 29 28 28 28 27 29 30 30 33 38
34 32 31 31 30 30 29 29 28 28 28 28 28 29 31 32 33 34 35 36 38 38 38 37 37 36 36 35 34 33 32 32 31 29 29 28 28 28 27 28 29 29 29 33
30 29 28 27 28 27 27 27 26 26 27 27 29 31 32 33 35 36 37 38 38 38 38 37 36 36 35 34 33 33 32 31 30 29 28 28 28 28 27 28 30 29 28 29
27 27 27 27 28 27 26 25 25 26 28 29 30 32 33 35 36 37 38 38 37 37 37 36 36 36 35 33 33 32 31 31 30 28 27 27 27 27 26 27 29 29 28 29
27 28 28 26 24 24 25 26 27 26 27 29 31 33 34 35 37 37 37 37 37 37 36 36 35 34 32 31 30 30 29 28 27 27 26 26 26 27 26 27 28 29 29 29
22 21 21 21 21 21 21 22 23 25 28 30 31 33 34 35 35 36 36 35 35 35 34 33 32 31 31 30 29 28 27 26 26 26 25 25 25 27 27 28 28 28 28 27
15 14 14 14 16 18 20 22 24 27 28 30 32 32 33 33 32 32 31 30 30 29 29 28 28 29 28 28 27 26 25 25 25 25 24 25 25 26 26 27 28 28 27 28
12 13 14 15 17 19 21 23 24 26 28 29 29 30 29 28 28 27 27 27 26 25 24 24 25 24 25 25 25 23 23 23 24 23 23 23 24 26 26 26 27 28 27 28
13 14 15 17 18 20 21 23 24 25 26 27 26 25 25 25 24 24 23 22 21 21 22 22 21 21 20 22 19 21 22 22 22 22 22 22 23 25 25 26 27 27 27 28
14 15 17 18 19 20 21 22 23 24 24 23 22 22 22 22 22 21 20 20 20 20 20 19 19 19 18 17 19 20 20 19 19 20 20 21 23 24 25 25 27 28 28 27
16 17 18 18 19 20 21 22 22 22 21 21 20 20 20 20 20 19 18 18 19 18 18 18 18 18 19 18 17 17 17 17 17 18 19 20 22 24 24 24 25 28 28 28
17 18 18 18 18 19 20 19 20 20 20 20 19 18 18 18 18 17 17 18 19 18 18 17 17 17 16 15 15 15 15 15 15 16 17 19 21 23 23 24 25 26 26 27
17 17 17 17 18 18 18 18 18 18 18 18 17 16 16 16 16 17 17 17 17 16 15 15 15 14 12 12 12 12 13 13 14 15 16 18 20 22 23 24 24 25 26 27
16 17 17 17 17 17 17 17 17 17 16 16 16 15 15 16 16 16 16 17 16 14 13 12 11 10 10 10 10 11 11 11 12 13 14 16 19 21 21 22 23 25 25 25
16 16 16 16 16 16 16 16 15 15 15 15 15 15 15 15 15 16 16 16 14 12 10 10 9 8 8 8 8 8 9 9 10 11 13 15 18 20 20 21 22 24 24 25
Wind_Direction
277 280 279 279 278 269 264 268 274 284 281 287 287 290 291 288 287 287 286 286 287 289 289 290 292 293 295 295 296 296 295 292 285 279 269 258 248 242 238 235 233 230 228 227
282 278 275 277 275 273 268 270 271 277 282 285 287 289 288 286 287 285 285 286 287 286 287 288 289 291 293 294 295 295 294 291 286 279 273 264 254 245 239 236 233 230 227 226
282 285 285 283 276 270 270 273 268 276 278 285 287 286 287 287 286 285 285 284 285 285 287 287 288 290 292 293 294 294 293 291 287 281 276 268 259 250 242 236 233 230 228 226
282 280 277 290 296 281 270 276 272 279 283 284 285 288 289 286 285 284 282 283 284 286 287 287 288 289 291 292 293 293 292 291 287 283 277 271 264 255 245 238 233 230 229 226
275 273 286 290 285 283 280 283 277 277 280 281 283 288 287 284 281 281 280 282 284 286 287 287 287 288 290 291 292 292 291 290 288 284 278 273 266 260 250 240 234 230 228 226
273 276 275 288 289 288 286 285 284 277 280 280 282 285 288 287 282 280 279 282 285 286 286 287 288 288 290 290 290 290 290 289 288 284 279 274 268 263 255 244 235 230 228 226
269 272 278 288 283 283 280 291 290 284 283 281 280 286 291 288 283 279 280 283 285 285 286 287 288 288 289 289 289 290 289 288 287 284 280 275 269 264 259 247 236 230 228 225
271 275 278 284 281 276 286 289 288 287 283 279 282 284 285 284 281 280 282 284 285 286 287 287 287 288 288 288 289 289 289 288 286 284 280 275 270 265 261 251 236 231 228 225
268 276 283 275 282 282 283 285 285 284 282 281 280 281 280 280 280 281 284 285 287 287 287 287 287 288 288 288 289 289 288 287 285 282 279 275 269 266 262 250 233 231 227 224
275 276 278 278 279 282 281 284 282 281 280 279 279 279 278 278 280 283 284 286 287 287 286 287 288 288 288 288 288 288 287 286 285 281 278 274 267 264 260 246 235 232 228 223
274 281 282 279 277 277 281 281 278 279 280 279 279 278 278 279 281 283 285 287 286 285 285 287 288 288 288 288 288 287 286 285 283 280 277 273 266 262 259 244 237 234 230 223
277 282 278 281 281 277 277 275 275 276 280 281 280 278 279 280 282 283 285 286 285 284 286 287 288 288 288 288 286 285 284 283 282 279 276 271 265 260 259 244 239 236 232 224
276 277 278 280 282 278 276 276 276 278 279 279 281 279 279 281 283 284 284 285 284 286 286 286 287 287 286 286 285 283 282 281 280 278 274 270 263 257 257 243 236 235 231 226
273 273 274 278 278 278 276 277 278 280 281 281 281 281 282 284 285 284 285 285 287 286 286 285 285 284 285 284 283 282 280 280 278 275 272 267 263 255 255 240 234 233 231 228
270 272 274 274 277 278 277 276 277 280 280 282 283 284 285 285 285 286 287 287 287 286 284 284 283 283 283 282 282 280 279 278 275 272 268 266 262 251 250 238 231 230 230 227
267 268 272 276 276 276 276 278 279 281 282 284 285 286 286 287 287 288 287 287 286 285 284 283 282 281 281 280 280 278 278 275 273 269 266 264 257 247 244 234 231 227 227 225
265 268 271 274 273 274 277 280 281 283 284 286 287 289 289 289 289 288 288 287 285 284 283 282 280 280 279 278 277 276 275 272 269 267 265 260 253 242 239 231 229 226 226 224
269 269 272 270 269 275 279 282 285 287 289 290 291 291 291 291 290 290 289 288 287 285 282 280 279 277 276 275 275 274 271 268 267 266 262 257 249 239 237 230 228 226 225 225
266 269 272 273 277 281 286 288 290 292 293 294 294 294 293 293 292 291 291 289 288 287 284 283 280 278 274 273 274 272 266 266 266 264 259 253 245 234 233 227 226 226 225 222
268 273 277 281 285 289 290 293 295 296 297 297 297 296 296 295 294 293 292 290 289 287 286 285 283 278 275 273 271 265 265 267 265 261 255 248 240 231 228 227 226 223 224 220
272 277 281 285 289 292 295 297 299 300 301 300 299 298 298 298 297 296 295 293 292 290 289 287 283 282 276 276 266 266 267 265 262 256 251 244 236 228 228 225 224 223 222 220
277 281 285 289 292 295 298 300 302 303 304 303 301 300 300 300 300 298 296 294 295 292 294 288 287 280 279 275 273 269 267 262 258 252 246 240 231 225 225 225 223 222 219 219
280 285 289 291 294 298 300 302 303 305 306 306 304 303 302 303 302 300 298 298 298 291 293 293 289 283 279 277 274 270 265 260 255 249 242 236 228 223 223 224 221 219 218 218
284 287 291 293 296 299 301 304 306 307 307 308 306 303 304 306 305 302 300 300 299 296 293 292 290 286 281 276 271 267 262 258 253 246 240 234 225 221 221 221 219 217 217 218
285 288 290 292 295 298 301 304 307 308 309 309 309 307 306 308 306 306 305 304 301 298 293 294 293 287 278 275 271 265 262 256 250 245 238 231 222 220 220 219 218 217 217 215
283 286 289 290 295 299 301 304 307 310 312 312 312 311 311 311 311 310 309 308 303 297 293 293 290 285 281 277 271 268 262 256 249 242 235 228 221 218 217 217 216 213 213 212
284 284 288 291 292 295 299 302 306 309 311 313 314 315 315 315 314 315 313 311 304 295 292 291 288 287 285 280 275 269 265 258 249 241 234 225 218 215 215 214 212 210 210 209